This is the latest recevied weather packets stored in our database for station/object KG5EO. If no packets are shown the sender has not sent any weather packets the latest 10 day(s).
| Time | Temp. | Humidity | Pressure | Rain* | Wind** | Luminosity | Snow |
|---|---|---|---|---|---|---|---|
| 1778183168 | 32.78° C | 13% | 41 hPa | 0 mm | - | - | - |
| 1778182864 | 33.33° C | 14% | 41 hPa | 0 mm | - | - | - |
| 1778182564 | 33.33° C | 13% | 41 hPa | 0 mm | - | - | - |
| 1778182266 | 32.78° C | 12% | 41 hPa | 0 mm | - | - | - |
| 1778181963 | 32.78° C | 12% | 41 hPa | 0 mm | - | - | - |
| 1778181664 | 32.78° C | 17% | 41 hPa | 0 mm | - | - | - |
| 1778181365 | 32.22° C | 14% | 41 hPa | 0 mm | - | - | - |
| 1778181063 | 31.67° C | 16% | 41 hPa | 0 mm | - | - | - |
| 1778180763 | 32.22° C | 15% | 41 hPa | 0 mm | - | - | - |
| 1778180465 | 31.67° C | 16% | 41 hPa | 0 mm | - | - | - |
| 1778180164 | 31.67° C | 14% | 41 hPa | 0 mm | - | - | - |
| 1778179863 | 31.11° C | 17% | 41 hPa | 0 mm | - | - | - |
| 1778179563 | 31.67° C | 16% | 41 hPa | 0 mm | - | - | - |
| 1778179262 | 31.11° C | 19% | 41 hPa | 0 mm | - | - | - |
| 1778178963 | 31.67° C | 22% | 41 hPa | 0 mm | - | - | - |
| 1778178662 | 31.11° C | 20% | 41 hPa | 0 mm | - | - | - |
| 1778178362 | 31.11° C | 20% | 41 hPa | 0 mm | - | - | - |
| 1778178062 | 30.56° C | 16% | 41 hPa | 0 mm | - | - | - |
| 1778177761 | 31.11° C | 17% | 41 hPa | 0 mm | - | - | - |
| 1778177461 | 30° C | 19% | 41 hPa | 0 mm | - | - | - |
| 1778177161 | 30.56° C | 18% | 41 hPa | 0 mm | - | - | - |
| 1778176861 | 30.56° C | 15% | 41 hPa | 0 mm | - | - | - |
| 1778176561 | 30.56° C | 17% | 41 hPa | 0 mm | - | - | - |
| 1778176261 | 30° C | 17% | 41 hPa | 0 mm | - | - | - |
| 1778175961 | 30° C | 18% | 41 hPa | 0 mm | - | - | - |
* Rain latest hour (hover to see other rain measurements)
** Current wind speed in m/s (hover to see current wind gust speed)